Weather History for Bloomington, IN

Change the Weather History Date:

Saturday, June 9, 2012

  Actual Average Record
Temperature  
Mean Temperature 70 °F 70 °F  
Max Temperature 87 °F 81 °F 91 °F (1999)
Min Temperature 52 °F 59 °F 52 °F (2012)
Degree Days  
Heating Degree Days 0 1  
Month to date heating degree days 22 11  
Since 1 June heating degree days 22 11  
Since 1 July heating degree days 4158 5262  
Cooling Degree Days 5 6  
Month to date cooling degree days 10 47  
Year to date cooling degree days 211 129  
Since 1 June cooling degree days 10 47  
Growing Degree Days 20 (Base 50)    
Moisture  
Dew Point 54 °F    
Average Humidity 60    
Maximum Humidity 93    
Minimum Humidity 27    
Precipitation  
Precipitation 0.00 in 0.17 in 1.86 in (2008)
Month to date precipitation 0.17 1.54  
Year to date precipitation 11.92 21.43  
Sea Level Pressure  
Sea Level Pressure 29.98 in    
Wind  
Wind Speed 2 mph (South)    
Max Wind Speed 14 mph    
Max Gust Speed 18 mph    
Visibility 10 miles    
Events      
T = Trace of Precipitation, MM = Missing Value Source: NWS Daily Summary

Daily Weather History Graph

Daily Weather History Graph

Search for Another Location

Airport:

Trip Planner

Search our weather history database for the weather conditions in past years. The results will help you decide how hot, cold, wet, or windy it might be!

Date:

Astronomy

Jun. 09, 2012 Rise Set
Actual Time 6:20 AM EDT 9:11 PM EDT
Civil Twilight 5:48 AM EDT 9:43 PM EDT
Nautical Twilight 5:07 AM EDT 10:24 PM EDT
Astronomical Twilight 4:21 AM EDT 11:10 PM EDT
Moon 12:36 AM EDT (6/9) 12:03 PM EDT (6/9)
Length of Visible Light 15h 55m
Length of Day
14h 51m
Waning Gibbous, 68% of the Moon is Illuminated
Jun 9
Waning Gibbous
Jun 11
Last Quarter
Jun 19
New
Jun 26
First Quarter
Jul 3
Full

Hourly Weather History & Observations

Time (EDT) Temp. Heat Index Dew Point Humidity Pressure Visibility Wind Dir Wind Speed Gust Speed Precip Events Conditions
12:53 AM 59.0 °F - 52.0 °F 78% 30.00 in 10.0 mi Calm Calm - N/A   Clear
1:53 AM 55.9 °F - 52.0 °F 87% 30.00 in 10.0 mi Calm Calm - N/A   Clear
3:53 AM 55.0 °F - 51.1 °F 86% 29.99 in 10.0 mi Calm Calm - N/A   Clear
4:53 AM 55.0 °F - 52.0 °F 89% 29.99 in 10.0 mi Calm Calm - N/A   Clear
5:53 AM 53.1 °F - 51.1 °F 93% 30.00 in 10.0 mi Calm Calm - N/A   Clear
6:53 AM 54.0 °F - 52.0 °F 93% 30.01 in 10.0 mi Calm Calm - N/A   Clear
7:53 AM 61.0 °F - 55.9 °F 83% 30.01 in 10.0 mi Calm Calm - N/A   Clear
8:53 AM 69.1 °F - 55.9 °F 63% 30.03 in 10.0 mi Calm Calm - N/A   Clear
9:53 AM 73.0 °F - 55.9 °F 55% 30.03 in 10.0 mi SE 3.5 mph - N/A   Clear
10:53 AM 75.9 °F - 57.0 °F 52% 30.02 in 10.0 mi SE 5.8 mph - N/A   Clear
11:53 AM 77.0 °F - 59.0 °F 54% 30.02 in 10.0 mi ESE 3.5 mph - N/A   Clear
12:53 PM 82.0 °F 81.2 °F 53.1 °F 37% 30.00 in 10.0 mi WSW 5.8 mph - N/A   Clear
1:53 PM 84.0 °F - 52.0 °F 33% 29.98 in 10.0 mi Calm Calm - N/A   Clear
2:53 PM 84.9 °F - 46.9 °F 27% 29.96 in 10.0 mi South 4.6 mph - N/A   Clear
3:53 PM 86.0 °F - 51.1 °F 30% 29.94 in 10.0 mi South 5.8 mph - N/A   Clear
4:53 PM 86.0 °F - 50.0 °F 29% 29.94 in 10.0 mi WSW 5.8 mph - N/A   Clear
5:53 PM 84.9 °F - 50.0 °F 30% 29.94 in 10.0 mi WSW 4.6 mph - N/A   Clear
6:53 PM 84.9 °F 83.2 °F 53.1 °F 33% 29.92 in 10.0 mi SSW 5.8 mph - N/A   Clear
7:53 PM 82.9 °F 81.9 °F 54.0 °F 37% 29.92 in 10.0 mi SSE 3.5 mph - N/A   Clear
8:53 PM 73.9 °F - 60.1 °F 62% 29.92 in 10.0 mi Calm Calm - N/A   Clear
9:53 PM 69.1 °F - 57.9 °F 68% 29.93 in 10.0 mi Calm Calm - N/A   Clear
10:53 PM 66.9 °F - 57.9 °F 73% 29.95 in 10.0 mi Calm Calm - N/A   Clear
11:53 PM 63.0 °F - 57.9 °F 84% 29.96 in 10.0 mi Calm Calm - N/A   Clear